Content
SEND FEEDBACK

Daily
Averages
Monthly
Summary
United States of America

AGANA, GUAM


Home > North America > United States > Guam
Elevation: 246 feet     Latitude: 13 29N     Longitude: 144 48E

WEATHER
 
SELECT A DAY
Number of Records: 213,928;   Date Range: 1/1/95 - 10/24/14
 
SHARE

PRINT THIS DATA

[ ← Previous Day ]
WEATHER ALMANAC - AUGUST 18, 2013
[ Next Day → ]
[ °C ]   °F
Weather ElementAverageHighLow
Temperature82.1 °F88 °F (11:54 am)78.1 °F (2:54 am)
Dewpoint74.6 °F77 °F (6:54 am)72 °F (10:54 am)
Humidity79.1 %94 % (6:54 am)61 % (11:54 am)
Barometer29.84 in29.88 in (8:54 am)29.79 in (3:54 pm)
Wind Speed3.8 mph8.1 mph (1:54 pm)
Weather ElementAverage
Visibility9.8 mi
Wind DirectionENE (73.2 °)

Weather ElementTotal
Precipitation0.03 in
Cooling Degree Days18.1 (Base 65)
Growing Degree Days33.1 (Base 50)
Averaged from 25 records on August 18, 2013
WEATHER CONDITIONS BREAKOUT
WIND DIRECTION BREAKOUT
WEATHER BY HOUR - AUGUST 18, 2013
[ °C ]   °F
Local TimeTemperatureDewpointHumidityBarometerVisibilityWind DirectionWind SpeedGust SpeedPrecipitationEventsConditions
1:54 AM79.0 °F75.0 °F88 %29.83 in10.0 miCalmClear
2:54 AM78.1 °F75.0 °F90 %29.81 in10.0 miSSE (160°)3.5 mphScattered Clouds
3:07 AM78.8 °F75.2 °F89 %29.83 in6.0 miCalm0.01 inRainLight Rain
3:35 AM78.8 °F75.2 °F89 %29.83 in10.0 miCalm0.01 inScattered Clouds
3:54 AM79.0 °F75.9 °F90 %29.81 in10.0 miCalm0.01 inClear
4:54 AM78.1 °F75.9 °F93 %29.82 in10.0 miCalmClear
5:54 AM79.0 °F75.9 °F90 %29.83 in10.0 miCalmScattered Clouds
6:54 AM79.0 °F77.0 °F94 %29.85 in10.0 miCalmClear
7:54 AM82.9 °F77.0 °F82 %29.87 in10.0 miCalmClear
8:54 AM84.0 °F75.0 °F74 %29.88 in10.0 miSSE (150°)4.6 mphPartly Cloudy
9:54 AM86.0 °F73.0 °F65 %29.88 in10.0 miSE (130°)5.8 mphScattered Clouds
10:54 AM86.0 °F72.0 °F63 %29.87 in10.0 miSSE (160°)6.9 mphPartly Cloudy
11:54 AM88.0 °F73.0 °F61 %29.85 in10.0 miSE (140°)5.8 mphPartly Cloudy
12:54 PM87.1 °F73.0 °F63 %29.82 in10.0 miVariable5.8 mphPartly Cloudy
1:54 PM87.1 °F73.0 °F63 %29.81 in10.0 miSE (130°)8.1 mphPartly Cloudy
2:54 PM88.0 °F73.0 °F61 %29.80 in10.0 miSE (130°)5.8 mphPartly Cloudy
3:54 PM87.1 °F73.0 °F63 %29.79 in10.0 miEast (80°)6.9 mphPartly Cloudy
4:54 PM84.9 °F73.0 °F67 %29.80 in10.0 miEast (80°)6.9 mphMostly Cloudy
5:54 PM84.9 °F73.9 °F69 %29.82 in10.0 miEast (90°)5.8 mphScattered Clouds
6:54 PM80.1 °F75.0 °F85 %29.84 in10.0 miEast (90°)6.9 mph0.00 inPartly Cloudy
7:54 PM79.0 °F75.9 °F90 %29.85 in10.0 miEast (100°)5.8 mphClear
8:54 PM79.0 °F75.9 °F90 %29.86 in10.0 miEast (90°)5.8 mphPartly Cloudy
9:54 PM80.1 °F75.0 °F85 %29.86 in10.0 miESE (110°)3.5 mphClear
10:54 PM80.1 °F75.0 °F85 %29.86 in10.0 miEast (80°)3.5 mphClear
11:54 PM79.0 °F75.0 °F88 %29.84 in10.0 miESE (110°)3.5 mphClear
Hourly data recorded from PGUM, located miles away from Agana, Guam







STORIES FROM OUR PARTNERS